Time,TemperatureF,DewpointF,PressureIn,WindDirection,WindDirectionDegrees,WindSpeedMPH,WindSpeedGustMPH,Humidity,HourlyPrecipIn,Conditions,Clouds,dailyrainin,SoftwareType,DateUTC
2013-01-20 00:00:00,25.0,13.5,30.33,North,359,6.0,9.0,61,0.00,,CLR,0.00,VWS V14.01,2013-01-20 06:00:00,
2013-01-20 00:05:00,24.7,13.6,30.32,NW,324,7.0,9.0,62,0.00,,CLR,0.00,VWS V14.01,2013-01-20 06:05:00,
2013-01-20 00:10:00,24.4,13.6,30.33,North,359,6.0,6.0,63,0.00,,CLR,0.00,VWS V14.01,2013-01-20 06:10:00,
2013-01-20 00:15:00,24.1,13.3,30.33,North,359,2.0,6.0,63,0.00,,CLR,0.00,VWS V14.01,2013-01-20 06:15:00,
2013-01-20 00:21:00,23.8,13.4,30.33,NNW,339,1.0,3.0,64,0.00,,CLR,0.00,VWS V14.01,2013-01-20 06:21:00,
2013-01-20 00:26:00,23.6,13.6,30.34,NNW,345,3.0,4.0,65,0.00,,CLR,0.00,VWS V14.01,2013-01-20 06:26:00,
2013-01-20 00:31:00,23.4,13.4,30.34,North,359,2.0,6.0,65,0.00,,CLR,0.00,VWS V14.01,2013-01-20 06:31:00,
2013-01-20 00:36:00,23.2,13.5,30.33,NNW,345,7.0,10.0,66,0.00,,CLR,0.00,VWS V14.01,2013-01-20 06:36:00,
2013-01-20 00:41:00,23.0,13.4,30.33,NNE,15,5.0,15.0,66,0.00,,CLR,0.00,VWS V14.01,2013-01-20 06:41:00,
2013-01-20 00:46:00,22.8,13.5,30.32,North,354,6.0,10.0,67,0.00,,CLR,0.00,VWS V14.01,2013-01-20 06:46:00,
2013-01-20 00:51:00,22.6,13.3,30.32,North,4,7.0,12.0,67,0.00,,CLR,0.00,VWS V14.01,2013-01-20 06:51:00,
2013-01-20 00:56:00,22.4,13.4,30.32,North,359,5.0,12.0,68,0.00,,CLR,0.00,VWS V14.01,2013-01-20 06:56:00,
2013-01-20 01:01:00,22.2,13.3,30.33,NNE,18,10.0,13.0,68,0.00,,CLR,0.00,VWS V14.01,2013-01-20 07:01:00,
2013-01-20 01:06:00,22.1,13.2,30.32,North,359,10.0,10.0,68,0.00,,CLR,0.00,VWS V14.01,2013-01-20 07:06:00,
2013-01-20 01:11:00,21.9,13.3,30.34,NNE,32,5.0,9.0,69,0.00,,CLR,0.00,VWS V14.01,2013-01-20 07:11:00,
2013-01-20 01:16:00,21.7,12.8,30.32,NE,49,8.0,12.0,68,0.00,,CLR,0.00,VWS V14.01,2013-01-20 07:16:00,
2013-01-20 01:21:00,21.5,12.6,30.33,NNE,12,8.0,9.0,68,0.00,,CLR,0.00,VWS V14.01,2013-01-20 07:21:00,
2013-01-20 01:26:00,21.3,12.7,30.33,North,11,4.0,10.0,69,0.00,,CLR,0.00,VWS V14.01,2013-01-20 07:26:00,
2013-01-20 01:31:00,21.1,11.9,30.33,North,4,6.0,10.0,67,0.00,,CLR,0.00,VWS V14.01,2013-01-20 07:31:00,
2013-01-20 01:36:00,20.9,12.0,30.33,NW,321,4.0,6.0,68,0.00,,CLR,0.00,VWS V14.01,2013-01-20 07:36:00,
2013-01-20 01:41:00,20.7,11.1,30.34,NNW,346,4.0,10.0,66,0.00,,CLR,0.00,VWS V14.01,2013-01-20 07:41:00,
2013-01-20 01:46:00,20.6,11.1,30.34,NNE,13,6.0,10.0,66,0.00,,CLR,0.00,VWS V14.01,2013-01-20 07:46:00,
2013-01-20 01:51:00,20.4,10.9,30.34,NNW,347,6.0,8.0,66,0.00,,CLR,0.00,VWS V14.01,2013-01-20 07:51:00,
2013-01-20 01:56:00,20.2,11.0,30.34,North,10,5.0,8.0,67,0.00,,CLR,0.00,VWS V14.01,2013-01-20 07:56:00,
2013-01-20 02:01:00,20.1,10.6,30.34,NNE,14,3.0,5.0,66,0.00,,CLR,0.00,VWS V14.01,2013-01-20 08:01:00,
2013-01-20 02:06:00,19.9,10.7,30.34,NE,35,3.0,6.0,67,0.00,,CLR,0.00,VWS V14.01,2013-01-20 08:06:00,
2013-01-20 02:11:00,19.8,10.6,30.34,North,4,5.0,7.0,67,0.00,,CLR,0.00,VWS V14.01,2013-01-20 08:11:00,
2013-01-20 02:16:00,19.5,10.0,30.34,NNW,335,4.0,8.0,66,0.00,,CLR,0.00,VWS V14.01,2013-01-20 08:16:00,
2013-01-20 02:22:00,19.4,10.2,30.34,NNW,347,2.0,5.0,67,0.00,,CLR,0.00,VWS V14.01,2013-01-20 08:22:00,
2013-01-20 02:27:00,19.2,10.1,30.35,NNE,27,2.0,6.0,67,0.00,,CLR,0.00,VWS V14.01,2013-01-20 08:27:00,
2013-01-20 02:32:00,19.1,10.3,30.35,NE,51,3.0,4.0,68,0.00,,CLR,0.00,VWS V14.01,2013-01-20 08:32:00,
2013-01-20 02:37:00,18.9,10.1,30.35,North,354,2.0,5.0,68,0.00,,CLR,0.00,VWS V14.01,2013-01-20 08:37:00,
2013-01-20 02:42:00,18.9,10.1,30.35,NNW,337,1.0,4.0,68,0.00,,CLR,0.00,VWS V14.01,2013-01-20 08:42:00,
2013-01-20 02:47:00,18.8,10.3,30.36,NW,311,3.0,7.0,69,0.00,,CLR,0.00,VWS V14.01,2013-01-20 08:47:00,
2013-01-20 02:52:00,18.7,10.6,30.35,NW,322,4.0,6.0,70,0.00,,CLR,0.00,VWS V14.01,2013-01-20 08:52:00,
2013-01-20 02:57:00,18.6,10.5,30.35,NNE,16,1.0,6.0,70,0.00,,CLR,0.00,VWS V14.01,2013-01-20 08:57:00,
2013-01-20 03:02:00,18.5,10.4,30.35,NNE,29,2.0,4.0,70,0.00,,CLR,0.00,VWS V14.01,2013-01-20 09:02:00,
2013-01-20 03:07:00,18.4,10.6,30.35,NNE,14,4.0,7.0,71,0.00,,CLR,0.00,VWS V14.01,2013-01-20 09:07:00,
2013-01-20 03:12:00,18.3,10.5,30.35,NNW,335,3.0,7.0,71,0.00,,CLR,0.00,VWS V14.01,2013-01-20 09:12:00,
2013-01-20 03:17:00,18.2,10.7,30.35,NE,36,1.0,4.0,72,0.00,,CLR,0.00,VWS V14.01,2013-01-20 09:17:00,
2013-01-20 03:22:00,18.1,10.6,30.35,NNE,28,3.0,4.0,72,0.00,,CLR,0.00,VWS V14.01,2013-01-20 09:22:00,
2013-01-20 03:27:00,18.1,10.6,30.34,North,9,4.0,6.0,72,0.00,,CLR,0.00,VWS V14.01,2013-01-20 09:27:00,
2013-01-20 03:32:00,18.0,10.5,30.35,NNW,341,2.0,5.0,72,0.00,,CLR,0.00,VWS V14.01,2013-01-20 09:32:00,
2013-01-20 03:37:00,18.0,10.8,30.35,NNE,18,4.0,4.0,73,0.00,,CLR,0.00,VWS V14.01,2013-01-20 09:37:00,
2013-01-20 03:42:00,18.0,10.8,30.35,North,9,3.0,4.0,73,0.00,,SCT250,0.00,VWS V14.01,2013-01-20 09:42:00,
2013-01-20 03:47:00,18.0,10.8,30.35,NNE,14,1.0,3.0,73,0.00,,SCT250,0.00,VWS V14.01,2013-01-20 09:47:00,
2013-01-20 03:52:00,17.9,11.0,30.35,North,354,3.0,3.0,74,0.00,,SCT250,0.00,VWS V14.01,2013-01-20 09:52:00,
2013-01-20 03:57:00,17.8,10.9,30.34,North,354,2.0,2.0,74,0.00,,SCT250,0.00,VWS V14.01,2013-01-20 09:57:00,
2013-01-20 04:02:00,17.7,10.8,30.34,NNE,21,2.0,4.0,74,0.00,,SCT250,0.00,VWS V14.01,2013-01-20 10:02:00,
2013-01-20 04:07:00,17.6,10.7,30.34,NNE,17,3.0,3.0,74,0.00,,SCT250,0.00,VWS V14.01,2013-01-20 10:07:00,
2013-01-20 04:12:00,17.5,10.9,30.34,NNE,17,1.0,2.0,75,0.00,,SCT250,0.00,VWS V14.01,2013-01-20 10:12:00,
2013-01-20 04:17:00,17.4,10.9,30.34,NNE,12,3.0,5.0,75,0.00,,SCT250,0.00,VWS V14.01,2013-01-20 10:17:00,
2013-01-20 04:22:00,17.4,10.9,30.33,NNE,19,3.0,5.0,75,0.00,,SCT250,0.00,VWS V14.01,2013-01-20 10:22:00,
2013-01-20 04:27:00,17.4,10.9,30.33,NNE,31,2.0,5.0,75,0.00,,SCT250,0.00,VWS V14.01,2013-01-20 10:27:00,
2013-01-20 04:32:00,17.4,10.9,30.34,NNE,16,3.0,4.0,75,0.00,,SCT250,0.00,VWS V14.01,2013-01-20 10:32:00,
2013-01-20 04:37:00,17.4,10.9,30.33,NNE,25,3.0,4.0,75,0.00,,SCT250,0.00,VWS V14.01,2013-01-20 10:37:00,
2013-01-20 04:42:00,17.4,10.9,30.33,NNE,18,5.0,5.0,75,0.00,,BKN250,0.00,VWS V14.01,2013-01-20 10:42:00,
2013-01-20 04:47:00,17.3,10.8,30.34,North,350,3.0,3.0,75,0.00,,BKN250,0.00,VWS V14.01,2013-01-20 10:47:00,
2013-01-20 04:52:00,17.3,11.1,30.34,North,349,4.0,4.0,76,0.00,,BKN250,0.00,VWS V14.01,2013-01-20 10:52:00,
2013-01-20 04:57:00,17.2,10.9,30.34,North,4,5.0,5.0,76,0.00,,BKN250,0.00,VWS V14.01,2013-01-20 10:57:00,
2013-01-20 05:02:00,17.2,10.6,30.34,North,8,1.0,7.0,75,0.00,,BKN250,0.00,VWS V14.01,2013-01-20 11:02:00,
2013-01-20 05:07:00,17.1,10.3,30.34,North,4,4.0,6.0,74,0.00,,BKN250,0.00,VWS V14.01,2013-01-20 11:07:00,
2013-01-20 05:12:00,17.1,9.9,30.34,NNE,33,6.0,6.0,73,0.00,,BKN250,0.00,VWS V14.01,2013-01-20 11:12:00,
2013-01-20 05:17:00,17.0,9.9,30.34,NNW,335,4.0,7.0,73,0.00,,BKN250,0.00,VWS V14.01,2013-01-20 11:17:00,
2013-01-20 05:22:00,16.9,9.4,30.34,NNE,26,2.0,2.0,72,0.00,,BKN250,0.00,VWS V14.01,2013-01-20 11:22:00,
2013-01-20 05:27:00,16.8,9.4,30.34,North,11,4.0,4.0,72,0.00,,BKN250,0.00,VWS V14.01,2013-01-20 11:27:00,
2013-01-20 05:32:00,16.6,9.2,30.34,NNE,14,1.0,4.0,72,0.00,,BKN250,0.00,VWS V14.01,2013-01-20 11:32:00,
2013-01-20 05:37:00,16.5,9.1,30.35,NNE,21,1.0,3.0,72,0.00,,BKN250,0.00,VWS V14.01,2013-01-20 11:37:00,
2013-01-20 05:42:00,16.4,9.3,30.35,NNE,15,6.0,6.0,73,0.00,,BKN250,0.00,VWS V14.01,2013-01-20 11:42:00,
2013-01-20 05:47:00,16.3,9.2,30.35,NNE,13,3.0,4.0,73,0.00,,BKN250,0.00,VWS V14.01,2013-01-20 11:47:00,
2013-01-20 05:52:00,16.2,9.1,30.35,North,4,0.0,1.0,73,0.00,,BKN250,0.00,VWS V14.01,2013-01-20 11:52:00,
2013-01-20 05:57:00,16.1,9.3,30.35,North,4,0.0,1.0,74,0.00,,BKN250,0.00,VWS V14.01,2013-01-20 11:57:00,
2013-01-20 06:02:00,15.9,9.1,30.35,NNE,15,1.0,3.0,74,0.00,,BKN250,0.00,VWS V14.01,2013-01-20 12:02:00,
2013-01-20 06:07:00,15.7,9.2,30.36,NNE,12,0.0,3.0,75,0.00,,BKN250,0.00,VWS V14.01,2013-01-20 12:07:00,
2013-01-20 06:13:00,15.6,9.1,30.35,North,10,3.0,4.0,75,0.00,,BKN250,0.00,VWS V14.01,2013-01-20 12:13:00,
2013-01-20 06:18:00,15.5,9.0,30.35,NNE,23,4.0,5.0,75,0.00,,BKN250,0.00,VWS V14.01,2013-01-20 12:18:00,
2013-01-20 06:23:00,15.4,8.6,30.35,NNE,14,4.0,5.0,74,0.00,,BKN250,0.00,VWS V14.01,2013-01-20 12:23:00,
2013-01-20 06:28:00,15.4,8.9,30.35,North,9,3.0,4.0,75,0.00,,BKN250,0.00,VWS V14.01,2013-01-20 12:28:00,
2013-01-20 06:33:00,15.3,8.5,30.36,NNE,31,1.0,2.0,74,0.00,,BKN250,0.00,VWS V14.01,2013-01-20 12:33:00,
2013-01-20 06:38:00,15.2,8.7,30.35,North,10,2.0,3.0,75,0.00,,BKN250,0.00,VWS V14.01,2013-01-20 12:38:00,
2013-01-20 06:43:00,15.2,8.7,30.36,NNE,19,1.0,2.0,75,0.00,,BKN250,0.00,VWS V14.01,2013-01-20 12:43:00,
2013-01-20 06:48:00,15.1,8.6,30.36,NNE,18,0.0,2.0,75,0.00,,BKN250,0.00,VWS V14.01,2013-01-20 12:48:00,
2013-01-20 06:53:00,15.0,8.5,30.36,NNE,18,0.0,1.0,75,0.00,,BKN250,0.00,VWS V14.01,2013-01-20 12:53:00,
2013-01-20 06:58:00,14.9,8.4,30.36,NNE,28,1.0,4.0,75,0.00,,BKN250,0.00,VWS V14.01,2013-01-20 12:58:00,
2013-01-20 07:03:00,14.8,8.6,30.37,NNE,28,3.0,3.0,76,0.00,,BKN250,0.00,VWS V14.01,2013-01-20 13:03:00,
2013-01-20 07:08:00,14.7,8.5,30.36,NNE,29,1.0,3.0,76,0.00,,BKN250,0.00,VWS V14.01,2013-01-20 13:08:00,
2013-01-20 07:13:00,14.6,8.4,30.36,NE,56,1.0,2.0,76,0.00,,BKN250,0.00,VWS V14.01,2013-01-20 13:13:00,
2013-01-20 07:18:00,14.5,8.3,30.36,NE,35,2.0,3.0,76,0.00,,BKN250,0.00,VWS V14.01,2013-01-20 13:18:00,
2013-01-20 07:23:00,14.4,8.5,30.36,ENE,65,0.0,2.0,77,0.00,,BKN250,0.00,VWS V14.01,2013-01-20 13:23:00,
2013-01-20 07:28:00,14.3,8.4,30.36,NE,34,0.0,2.0,77,0.00,,BKN250,0.00,VWS V14.01,2013-01-20 13:28:00,
2013-01-20 07:33:00,14.3,8.7,30.37,ENE,61,0.0,3.0,78,0.00,,BKN250,0.00,VWS V14.01,2013-01-20 13:33:00,
2013-01-20 07:38:00,14.4,8.8,30.37,NE,47,1.0,3.0,78,0.00,,BKN250,0.00,VWS V14.01,2013-01-20 13:38:00,
2013-01-20 07:43:00,14.4,8.5,30.37,ENE,77,3.0,3.0,77,0.00,,BKN250,0.00,VWS V14.01,2013-01-20 13:43:00,
2013-01-20 07:48:00,14.2,8.0,30.37,NNE,29,6.0,6.0,76,0.00,,BKN250,0.00,VWS V14.01,2013-01-20 13:48:00,
2013-01-20 07:53:00,14.0,7.8,30.37,NNE,25,6.0,7.0,76,0.00,,BKN250,0.00,VWS V14.01,2013-01-20 13:53:00,
2013-01-20 07:58:00,13.9,7.8,30.38,NNE,16,3.0,5.0,76,0.00,,BKN250,0.00,VWS V14.01,2013-01-20 13:58:00,
2013-01-20 08:03:00,14.0,7.8,30.37,NE,41,3.0,5.0,76,0.00,,BKN250,0.00,VWS V14.01,2013-01-20 14:03:00,
2013-01-20 08:08:00,14.1,7.7,30.38,ENE,64,2.0,7.0,75,0.00,,BKN250,0.00,VWS V14.01,2013-01-20 14:08:00,
2013-01-20 08:13:00,14.2,7.7,30.37,NE,42,4.0,5.0,75,0.00,,BKN250,0.00,VWS V14.01,2013-01-20 14:13:00,
2013-01-20 08:18:00,14.3,7.8,30.37,NE,52,3.0,4.0,75,0.00,,BKN250,0.00,VWS V14.01,2013-01-20 14:18:00,
2013-01-20 08:23:00,14.5,8.0,30.37,NE,52,3.0,5.0,75,0.00,,BKN250,0.00,VWS V14.01,2013-01-20 14:23:00,
2013-01-20 08:32:00,14.8,8.3,30.37,NNE,16,4.0,4.0,75,0.00,,BKN250,0.00,VWS V14.01,2013-01-20 14:32:00,
2013-01-20 08:37:00,14.7,8.2,30.37,NE,50,1.0,4.0,75,0.00,,BKN250,0.00,VWS V14.01,2013-01-20 14:37:00,
2013-01-20 08:42:00,14.8,8.3,30.37,NNE,12,5.0,5.0,75,0.00,,BKN250,0.00,VWS V14.01,2013-01-20 14:42:00,
2013-01-20 08:47:00,14.8,8.3,30.36,NE,41,1.0,4.0,75,0.00,,BKN250,0.00,VWS V14.01,2013-01-20 14:47:00,
2013-01-20 08:52:00,14.8,8.3,30.37,NNE,18,5.0,9.0,75,0.00,,BKN250,0.00,VWS V14.01,2013-01-20 14:52:00,
2013-01-20 08:57:00,14.9,8.4,30.36,ENE,70,3.0,4.0,75,0.00,,BKN250,0.00,VWS V14.01,2013-01-20 14:57:00,
2013-01-20 09:02:00,15.4,8.9,30.36,NE,50,3.0,8.0,75,0.00,,BKN250,0.00,VWS V14.01,2013-01-20 15:02:00,
2013-01-20 09:07:00,15.9,9.1,30.37,NE,47,6.0,9.0,74,0.00,,BKN250,0.00,VWS V14.01,2013-01-20 15:07:00,
2013-01-20 09:12:00,16.1,9.0,30.37,NE,39,10.0,12.0,73,0.00,,BKN250,0.00,VWS V14.01,2013-01-20 15:12:00,
2013-01-20 09:17:00,16.4,9.0,30.37,NE,52,5.0,8.0,72,0.00,,BKN250,0.00,VWS V14.01,2013-01-20 15:17:00,
2013-01-20 09:22:00,16.6,9.2,30.37,NNE,33,5.0,8.0,72,0.00,,BKN250,0.00,VWS V14.01,2013-01-20 15:22:00,
2013-01-20 09:27:00,16.8,9.0,30.38,NE,43,7.0,9.0,71,0.00,,BKN250,0.00,VWS V14.01,2013-01-20 15:27:00,
2013-01-20 09:32:00,17.5,9.4,30.38,NE,41,6.0,6.0,70,0.00,,BKN250,0.00,VWS V14.01,2013-01-20 15:32:00,
2013-01-20 09:37:00,18.0,9.6,30.37,North,8,5.0,8.0,69,0.00,,BKN250,0.00,VWS V14.01,2013-01-20 15:37:00,
2013-01-20 09:42:00,17.9,8.5,30.38,NNE,31,5.0,9.0,66,0.00,,BKN250,0.00,VWS V14.01,2013-01-20 15:42:00,
2013-01-20 09:47:00,18.0,8.2,30.38,North,8,8.0,8.0,65,0.00,,BKN250,0.00,VWS V14.01,2013-01-20 15:47:00,
2013-01-20 09:53:00,18.3,8.5,30.38,NE,52,2.0,7.0,65,0.00,,BKN250,0.00,VWS V14.01,2013-01-20 15:53:00,
2013-01-20 09:58:00,18.5,8.0,30.39,North,359,5.0,10.0,63,0.00,,BKN250,0.00,VWS V14.01,2013-01-20 15:58:00,
2013-01-20 10:03:00,18.5,7.3,30.40,NNE,17,1.0,4.0,61,0.00,,BKN250,0.00,VWS V14.01,2013-01-20 16:03:00,
2013-01-20 10:08:00,18.2,7.4,30.40,NNE,27,7.0,9.0,62,0.00,,BKN250,0.00,VWS V14.01,2013-01-20 16:08:00,
2013-01-20 10:13:00,18.1,7.3,30.40,NNE,23,8.0,11.0,62,0.00,,BKN250,0.00,VWS V14.01,2013-01-20 16:13:00,
2013-01-20 10:18:00,18.1,7.6,30.41,NNE,23,8.0,8.0,63,0.00,,BKN250,0.00,VWS V14.01,2013-01-20 16:18:00,
2013-01-20 10:23:00,18.2,7.7,30.40,NNE,21,4.0,9.0,63,0.00,,BKN250,0.00,VWS V14.01,2013-01-20 16:23:00,
2013-01-20 10:28:00,18.5,7.7,30.41,NNE,19,5.0,8.0,62,0.00,,BKN250,0.00,VWS V14.01,2013-01-20 16:28:00,
2013-01-20 10:33:00,18.9,8.1,30.41,NE,39,2.0,3.0,62,0.00,,BKN250,0.00,VWS V14.01,2013-01-20 16:33:00,
2013-01-20 10:38:00,19.4,8.5,30.41,NNE,12,11.0,11.0,62,0.00,,BKN250,0.00,VWS V14.01,2013-01-20 16:38:00,
2013-01-20 10:43:00,19.2,8.3,30.41,NE,44,3.0,7.0,62,0.00,,BKN250,0.00,VWS V14.01,2013-01-20 16:43:00,
2013-01-20 10:48:00,19.1,8.2,30.41,NNE,33,7.0,10.0,62,0.00,,BKN250,0.00,VWS V14.01,2013-01-20 16:48:00,
2013-01-20 10:53:00,19.1,7.5,30.41,North,4,4.0,9.0,60,0.00,,BKN250,0.00,VWS V14.01,2013-01-20 16:53:00,
2013-01-20 10:58:00,19.1,7.1,30.42,NE,41,2.0,4.0,59,0.00,,BKN250,0.00,VWS V14.01,2013-01-20 16:58:00,
2013-01-20 11:03:00,19.6,7.6,30.42,North,4,7.0,9.0,59,0.00,,BKN250,0.00,VWS V14.01,2013-01-20 17:03:00,
2013-01-20 11:08:00,19.8,7.4,30.42,East,83,8.0,8.0,58,0.00,,BKN250,0.00,VWS V14.01,2013-01-20 17:08:00,
2013-01-20 11:13:00,19.8,7.0,30.42,NNE,21,9.0,10.0,57,0.00,,BKN250,0.00,VWS V14.01,2013-01-20 17:13:00,
2013-01-20 11:18:00,19.7,6.6,30.43,ESE,118,1.0,4.0,56,0.00,,BKN250,0.00,VWS V14.01,2013-01-20 17:18:00,
2013-01-20 11:23:00,19.9,7.1,30.43,NNE,14,3.0,5.0,57,0.00,,BKN250,0.00,VWS V14.01,2013-01-20 17:23:00,
2013-01-20 11:28:00,19.9,7.1,30.43,NE,48,2.0,6.0,57,0.00,,BKN250,0.00,VWS V14.01,2013-01-20 17:28:00,
2013-01-20 11:33:00,19.8,6.7,30.43,NE,48,6.0,10.0,56,0.00,,BKN250,0.00,VWS V14.01,2013-01-20 17:33:00,
2013-01-20 11:38:00,19.8,6.7,30.42,NW,311,4.0,5.0,56,0.00,,BKN250,0.00,VWS V14.01,2013-01-20 17:38:00,
2013-01-20 11:43:00,19.8,6.3,30.42,NNE,30,4.0,7.0,55,0.00,,OVC250,0.00,VWS V14.01,2013-01-20 17:43:00,
2013-01-20 11:48:00,19.9,6.8,30.42,NE,52,2.0,6.0,56,0.00,,OVC250,0.00,VWS V14.01,2013-01-20 17:48:00,
2013-01-20 11:53:00,20.2,6.6,30.42,North,8,10.0,10.0,55,0.00,,OVC250,0.00,VWS V14.01,2013-01-20 17:53:00,
2013-01-20 11:58:00,20.2,6.6,30.42,NNE,31,4.0,7.0,55,0.00,,OVC250,0.00,VWS V14.01,2013-01-20 17:58:00,
2013-01-20 12:03:00,20.5,7.3,30.42,NNE,13,9.0,10.0,56,0.00,,OVC250,0.00,VWS V14.01,2013-01-20 18:03:00,
2013-01-20 12:08:00,20.7,7.5,30.42,NNE,16,5.0,11.0,56,0.00,,OVC250,0.00,VWS V14.01,2013-01-20 18:08:00,
2013-01-20 12:13:00,20.8,6.8,30.42,North,8,5.0,9.0,54,0.00,,OVC250,0.00,VWS V14.01,2013-01-20 18:13:00,
2013-01-20 12:18:00,20.7,6.7,30.42,NNW,337,5.0,8.0,54,0.00,,OVC250,0.00,VWS V14.01,2013-01-20 18:18:00,
2013-01-20 12:24:00,20.5,6.9,30.42,North,349,6.0,12.0,55,0.00,,OVC250,0.00,VWS V14.01,2013-01-20 18:24:00,
2013-01-20 12:28:00,20.4,7.2,30.42,North,10,7.0,10.0,56,0.00,,OVC250,0.00,VWS V14.01,2013-01-20 18:28:00,
2013-01-20 12:33:00,20.5,7.3,30.42,NNE,29,7.0,10.0,56,0.00,,OVC250,0.00,VWS V14.01,2013-01-20 18:33:00,
2013-01-20 12:39:00,20.6,7.4,30.42,NE,34,5.0,9.0,56,0.00,,OVC250,0.00,VWS V14.01,2013-01-20 18:39:00,
2013-01-20 12:44:00,20.9,7.7,30.42,NNE,25,8.0,9.0,56,0.00,,OVC140,0.00,VWS V14.01,2013-01-20 18:44:00,
2013-01-20 12:49:00,20.8,8.0,30.42,North,359,5.0,11.0,57,0.00,,OVC140,0.00,VWS V14.01,2013-01-20 18:49:00,
2013-01-20 12:54:00,20.6,7.4,30.42,NNE,25,11.0,11.0,56,0.00,,OVC140,0.00,VWS V14.01,2013-01-20 18:54:00,
2013-01-20 12:59:00,20.3,7.1,30.41,NNE,12,6.0,13.0,56,0.00,,OVC140,0.00,VWS V14.01,2013-01-20 18:59:00,
2013-01-20 13:04:00,20.3,7.5,30.41,North,354,4.0,7.0,57,0.00,,OVC140,0.00,VWS V14.01,2013-01-20 19:04:00,
2013-01-20 13:09:00,20.2,7.0,30.41,NE,37,6.0,7.0,56,0.00,,OVC140,0.00,VWS V14.01,2013-01-20 19:09:00,
2013-01-20 13:14:00,20.1,7.3,30.41,North,11,7.0,9.0,57,0.00,,OVC140,0.00,VWS V14.01,2013-01-20 19:14:00,
2013-01-20 13:19:00,20.0,6.8,30.41,NNE,25,6.0,9.0,56,0.00,,OVC140,0.00,VWS V14.01,2013-01-20 19:19:00,
2013-01-20 13:24:00,19.9,7.1,30.41,North,359,4.0,8.0,57,0.00,,OVC140,0.00,VWS V14.01,2013-01-20 19:24:00,
2013-01-20 13:29:00,19.9,7.1,30.40,North,10,6.0,9.0,57,0.00,,OVC140,0.00,VWS V14.01,2013-01-20 19:29:00,
2013-01-20 13:34:00,19.9,7.1,30.40,North,359,6.0,6.0,57,0.00,,OVC140,0.00,VWS V14.01,2013-01-20 19:34:00,
2013-01-20 13:39:00,20.0,7.2,30.40,NNE,18,7.0,9.0,57,0.00,,OVC140,0.00,VWS V14.01,2013-01-20 19:39:00,
2013-01-20 13:44:00,20.0,7.2,30.40,NE,49,3.0,8.0,57,0.00,,OVC060,0.00,VWS V14.01,2013-01-20 19:44:00,
2013-01-20 13:49:00,20.2,7.0,30.41,NNE,13,4.0,6.0,56,0.00,,OVC060,0.00,VWS V14.01,2013-01-20 19:49:00,
2013-01-20 13:54:00,20.2,6.6,30.40,NNE,12,4.0,7.0,55,0.00,,OVC060,0.00,VWS V14.01,2013-01-20 19:54:00,
2013-01-20 13:59:00,20.3,6.7,30.40,NNE,29,5.0,5.0,55,0.00,,OVC060,0.00,VWS V14.01,2013-01-20 19:59:00,
2013-01-20 14:04:00,20.4,6.4,30.40,NE,39,3.0,8.0,54,0.00,,OVC060,0.00,VWS V14.01,2013-01-20 20:04:00,
2013-01-20 14:09:00,20.2,6.2,30.40,NNW,332,2.0,4.0,54,0.00,,OVC060,0.00,VWS V14.01,2013-01-20 20:09:00,
2013-01-20 14:14:00,20.3,5.5,30.40,North,359,5.0,5.0,52,0.00,,OVC060,0.00,VWS V14.01,2013-01-20 20:14:00,
2013-01-20 14:19:00,20.3,5.5,30.40,NNW,338,3.0,5.0,52,0.00,,OVC060,0.00,VWS V14.01,2013-01-20 20:19:00,
2013-01-20 14:24:00,20.5,6.1,30.41,NW,318,4.0,4.0,53,0.00,,OVC060,0.00,VWS V14.01,2013-01-20 20:24:00,
2013-01-20 14:29:00,20.6,6.2,30.41,North,354,2.0,7.0,53,0.00,,OVC060,0.00,VWS V14.01,2013-01-20 20:29:00,
2013-01-20 14:34:00,20.8,6.4,30.41,NNW,345,5.0,7.0,53,0.00,,OVC060,0.00,VWS V14.01,2013-01-20 20:34:00,
2013-01-20 14:39:00,20.8,6.4,30.41,NW,314,2.0,6.0,53,0.00,,OVC060,0.00,VWS V14.01,2013-01-20 20:39:00,
2013-01-20 14:44:00,20.9,6.9,30.40,NNW,334,4.0,6.0,54,0.00,,OVC060,0.00,VWS V14.01,2013-01-20 20:44:00,
2013-01-20 14:49:00,20.8,6.4,30.40,North,4,3.0,4.0,53,0.00,,OVC060,0.00,VWS V14.01,2013-01-20 20:49:00,
2013-01-20 14:54:00,21.0,6.6,30.41,NNW,343,4.0,5.0,53,0.00,,OVC140,0.00,VWS V14.01,2013-01-20 20:54:00,
2013-01-20 15:00:00,21.0,6.6,30.41,NNE,21,4.0,7.0,53,0.00,,OVC140,0.00,VWS V14.01,2013-01-20 21:00:00,
2013-01-20 15:05:00,21.0,7.0,30.41,NNE,14,4.0,8.0,54,0.00,,OVC140,0.00,VWS V14.01,2013-01-20 21:05:00,
2013-01-20 15:10:00,20.9,6.9,30.41,NNE,26,2.0,9.0,54,0.00,,OVC140,0.00,VWS V14.01,2013-01-20 21:10:00,
2013-01-20 15:15:00,20.9,6.9,30.41,NNE,19,8.0,11.0,54,0.00,,OVC140,0.00,VWS V14.01,2013-01-20 21:15:00,
2013-01-20 15:20:00,20.7,6.7,30.41,NNE,13,2.0,8.0,54,0.00,,OVC140,0.00,VWS V14.01,2013-01-20 21:20:00,
2013-01-20 15:25:00,20.7,7.1,30.41,NNE,26,5.0,5.0,55,0.00,,OVC140,0.00,VWS V14.01,2013-01-20 21:25:00,
2013-01-20 15:30:00,20.8,7.2,30.41,North,354,11.0,12.0,55,0.00,,OVC140,0.00,VWS V14.01,2013-01-20 21:30:00,
2013-01-20 15:35:00,20.6,7.0,30.41,NNE,17,4.0,7.0,55,0.00,,OVC140,0.00,VWS V14.01,2013-01-20 21:35:00,
2013-01-20 15:40:00,20.6,7.4,30.41,North,4,7.0,9.0,56,0.00,,OVC140,0.00,VWS V14.01,2013-01-20 21:40:00,
2013-01-20 15:45:00,20.6,7.4,30.41,NNE,12,8.0,10.0,56,0.00,,OVC055,0.00,VWS V14.01,2013-01-20 21:45:00,
2013-01-20 15:50:00,20.5,7.3,30.42,North,8,8.0,9.0,56,0.00,,OVC055,0.00,VWS V14.01,2013-01-20 21:50:00,
2013-01-20 15:55:00,20.5,7.7,30.42,NNE,29,6.0,7.0,57,0.00,,OVC055,0.00,VWS V14.01,2013-01-20 21:55:00,
2013-01-20 16:00:00,20.6,7.8,30.42,NNE,19,9.0,9.0,57,0.00,,OVC055,0.00,VWS V14.01,2013-01-20 22:00:00,
2013-01-20 16:05:00,20.5,7.7,30.42,NNE,30,6.0,9.0,57,0.00,,OVC055,0.00,VWS V14.01,2013-01-20 22:05:00,
2013-01-20 16:10:00,20.5,8.1,30.42,NNE,17,4.0,9.0,58,0.00,,OVC055,0.00,VWS V14.01,2013-01-20 22:10:00,
2013-01-20 16:15:00,20.5,7.7,30.42,North,359,4.0,7.0,57,0.00,,OVC055,0.00,VWS V14.01,2013-01-20 22:15:00,
2013-01-20 16:20:00,20.4,8.0,30.42,NNE,18,3.0,5.0,58,0.00,,OVC055,0.00,VWS V14.01,2013-01-20 22:20:00,
2013-01-20 16:25:00,20.6,7.8,30.42,North,4,5.0,7.0,57,0.00,,OVC055,0.00,VWS V14.01,2013-01-20 22:25:00,
2013-01-20 16:30:00,20.7,7.9,30.42,NNE,31,9.0,11.0,57,0.00,,OVC055,0.00,VWS V14.01,2013-01-20 22:30:00,
2013-01-20 16:35:00,20.7,7.9,30.42,NW,326,3.0,9.0,57,0.00,,OVC055,0.00,VWS V14.01,2013-01-20 22:35:00,
2013-01-20 16:40:00,20.7,7.5,30.42,North,4,5.0,9.0,56,0.00,,,0.00,VWS V14.01,2013-01-20 22:40:00,
2013-01-20 16:45:00,20.7,7.5,30.41,NNE,15,6.0,6.0,56,0.00,,,0.00,VWS V14.01,2013-01-20 22:45:00,
2013-01-20 16:50:00,20.7,7.5,30.41,NNE,20,3.0,6.0,56,0.00,,,0.00,VWS V14.01,2013-01-20 22:50:00,
2013-01-20 16:55:00,20.6,7.8,30.41,NNE,13,3.0,5.0,57,0.00,,,0.00,VWS V14.01,2013-01-20 22:55:00,
2013-01-20 17:00:00,20.5,8.1,30.42,NNE,24,6.0,6.0,58,0.00,,,0.00,VWS V14.01,2013-01-20 23:00:00,
2013-01-20 17:05:00,20.5,8.1,30.42,North,4,4.0,6.0,58,0.00,,,0.00,VWS V14.01,2013-01-20 23:05:00,
2013-01-20 17:11:00,20.5,8.5,30.42,NNW,339,5.0,7.0,59,0.00,,,0.00,VWS V14.01,2013-01-20 23:11:00,
2013-01-20 17:16:00,20.4,8.7,30.42,North,354,1.0,4.0,60,0.00,,,0.00,VWS V14.01,2013-01-20 23:16:00,
2013-01-20 17:21:00,20.3,9.0,30.43,NNE,14,4.0,5.0,61,0.00,,,0.00,VWS V14.01,2013-01-20 23:21:00,
2013-01-20 17:26:00,20.3,9.4,30.43,NNW,336,2.0,6.0,62,0.00,,,0.00,VWS V14.01,2013-01-20 23:26:00,
2013-01-20 17:31:00,20.2,10.0,30.43,NNW,330,2.0,6.0,64,0.00,,,0.00,VWS V14.01,2013-01-20 23:31:00,
2013-01-20 17:36:00,20.1,10.2,30.43,NNW,340,2.0,3.0,65,0.00,,,0.00,VWS V14.01,2013-01-20 23:36:00,
2013-01-20 17:41:00,20.0,10.5,30.43,NNW,344,3.0,5.0,66,0.00,,,0.00,VWS V14.01,2013-01-20 23:41:00,
2013-01-20 17:46:00,19.9,10.7,30.43,NW,324,3.0,6.0,67,0.00,,,0.00,VWS V14.01,2013-01-20 23:46:00,
2013-01-20 17:51:00,19.9,11.1,30.44,North,354,3.0,7.0,68,0.00,,,0.00,VWS V14.01,2013-01-20 23:51:00,
2013-01-20 17:56:00,19.8,11.0,30.44,NNE,16,4.0,6.0,68,0.00,,,0.00,VWS V14.01,2013-01-20 23:56:00,
2013-01-20 18:01:00,19.3,10.8,30.44,NNW,335,4.0,10.0,69,0.00,,,0.00,VWS V14.01,2013-01-21 00:01:00,
2013-01-20 18:06:00,19.1,10.6,30.44,NW,316,3.0,8.0,69,0.00,,,0.00,VWS V14.01,2013-01-21 00:06:00,
2013-01-20 18:11:00,18.9,10.8,30.44,NNW,345,2.0,8.0,70,0.00,,SCT043,0.00,VWS V14.01,2013-01-21 00:11:00,
2013-01-20 18:16:00,18.7,10.9,30.44,NNW,346,2.0,5.0,71,0.00,,SCT043,0.00,VWS V14.01,2013-01-21 00:16:00,
2013-01-20 18:21:00,18.6,10.8,30.44,NNE,18,4.0,4.0,71,0.00,,SCT043,0.00,VWS V14.01,2013-01-21 00:21:00,
2013-01-20 18:26:00,18.4,10.6,30.45,NNW,341,3.0,6.0,71,0.00,,SCT043,0.00,VWS V14.01,2013-01-21 00:26:00,
2013-01-20 18:31:00,18.2,10.7,30.45,NNW,347,1.0,4.0,72,0.00,,SCT043,0.00,VWS V14.01,2013-01-21 00:31:00,
2013-01-20 18:36:00,17.8,10.3,30.45,NNW,336,4.0,6.0,72,0.00,,SCT043,0.00,VWS V14.01,2013-01-21 00:36:00,
2013-01-20 18:41:00,17.6,10.4,30.45,NW,316,5.0,5.0,73,0.00,,SCT043,0.00,VWS V14.01,2013-01-21 00:41:00,
2013-01-20 18:46:00,17.3,10.1,30.45,NNE,18,1.0,5.0,73,0.00,,SCT043,0.00,VWS V14.01,2013-01-21 00:46:00,
2013-01-20 18:51:00,17.0,10.2,30.46,NNW,335,2.0,3.0,74,0.00,,SCT043,0.00,VWS V14.01,2013-01-21 00:51:00,
2013-01-20 18:56:00,16.8,10.0,30.46,NW,326,3.0,4.0,74,0.00,,SCT043,0.00,VWS V14.01,2013-01-21 00:56:00,
2013-01-20 19:02:00,16.6,10.1,30.46,North,10,1.0,3.0,75,0.00,,SCT043,0.00,VWS V14.01,2013-01-21 01:02:00,
2013-01-20 19:07:00,16.4,9.9,30.46,North,10,0.0,1.0,75,0.00,,SCT043,0.00,VWS V14.01,2013-01-21 01:07:00,
2013-01-20 19:12:00,16.2,10.0,30.46,NNW,328,2.0,3.0,76,0.00,,SCT043,0.00,VWS V14.01,2013-01-21 01:12:00,
2013-01-20 19:17:00,16.2,10.0,30.46,NNW,342,0.0,2.0,76,0.00,,SCT043,0.00,VWS V14.01,2013-01-21 01:17:00,
2013-01-20 19:22:00,16.2,10.0,30.46,NNW,341,1.0,1.0,76,0.00,,SCT043,0.00,VWS V14.01,2013-01-21 01:22:00,
2013-01-20 19:27:00,16.1,9.9,30.46,NNW,341,1.0,1.0,76,0.00,,SCT043,0.00,VWS V14.01,2013-01-21 01:27:00,
2013-01-20 19:32:00,16.0,10.1,30.46,NNW,334,1.0,3.0,77,0.00,,SCT043,0.00,VWS V14.01,2013-01-21 01:32:00,
2013-01-20 19:37:00,15.9,10.0,30.45,North,359,2.0,2.0,77,0.00,,SCT043,0.00,VWS V14.01,2013-01-21 01:37:00,
2013-01-20 19:43:00,15.8,9.9,30.45,North,359,0.0,0.0,77,0.00,,FEW020,0.00,VWS V14.01,2013-01-21 01:43:00,
2013-01-20 19:48:00,15.7,9.8,30.45,North,359,0.0,0.0,77,0.00,,FEW020,0.00,VWS V14.01,2013-01-21 01:48:00,
2013-01-20 19:53:00,15.5,9.9,30.45,North,359,0.0,0.0,78,0.00,,FEW020,0.00,VWS V14.01,2013-01-21 01:53:00,
2013-01-20 19:58:00,15.3,9.7,30.45,North,359,0.0,0.0,78,0.00,,FEW020,0.00,VWS V14.01,2013-01-21 01:58:00,
2013-01-20 20:03:00,15.0,9.4,30.45,North,359,0.0,0.0,78,0.00,,FEW020,0.00,VWS V14.01,2013-01-21 02:03:00,
2013-01-20 20:08:00,14.7,9.1,30.45,North,359,0.0,0.0,78,0.00,,FEW020,0.00,VWS V14.01,2013-01-21 02:08:00,
2013-01-20 20:13:00,14.5,9.2,30.45,North,359,0.0,1.0,79,0.00,,FEW020,0.00,VWS V14.01,2013-01-21 02:13:00,
2013-01-20 20:18:00,14.5,9.5,30.45,North,359,0.0,1.0,80,0.00,,FEW020,0.00,VWS V14.01,2013-01-21 02:18:00,
2013-01-20 20:23:00,14.4,9.4,30.45,North,359,0.0,0.0,80,0.00,,FEW020,0.00,VWS V14.01,2013-01-21 02:23:00,
2013-01-20 20:28:00,14.5,9.5,30.45,North,359,2.0,2.0,80,0.00,,FEW020,0.00,VWS V14.01,2013-01-21 02:28:00,
2013-01-20 20:33:00,14.5,9.5,30.45,North,359,0.0,1.0,80,0.00,,FEW020,0.00,VWS V14.01,2013-01-21 02:33:00,
2013-01-20 20:38:00,14.5,9.5,30.45,North,359,1.0,1.0,80,0.00,,FEW020,0.00,VWS V14.01,2013-01-21 02:38:00,
2013-01-20 20:43:00,14.5,9.7,30.45,NNW,343,0.0,2.0,81,0.00,,FEW020,0.00,VWS V14.01,2013-01-21 02:43:00,
2013-01-20 20:48:00,14.7,9.9,30.46,NW,318,1.0,3.0,81,0.00,,FEW020,0.00,VWS V14.01,2013-01-21 02:48:00,
2013-01-20 20:53:00,14.9,9.9,30.45,NW,318,1.0,2.0,80,0.00,,FEW020,0.00,VWS V14.01,2013-01-21 02:53:00,
2013-01-20 20:58:00,14.9,9.9,30.45,NW,318,0.0,1.0,80,0.00,,FEW020,0.00,VWS V14.01,2013-01-21 02:58:00,
2013-01-20 21:03:00,15.0,10.0,30.46,NW,318,1.0,1.0,80,0.00,,FEW020,0.00,VWS V14.01,2013-01-21 03:03:00,
2013-01-20 21:08:00,15.0,10.0,30.46,NW,318,1.0,1.0,80,0.00,,FEW020,0.00,VWS V14.01,2013-01-21 03:08:00,
2013-01-20 21:13:00,15.0,10.2,30.46,WNW,303,1.0,3.0,81,0.00,,FEW020,0.00,VWS V14.01,2013-01-21 03:13:00,
2013-01-20 21:18:00,15.1,10.3,30.46,WNW,301,1.0,2.0,81,0.00,,FEW020,0.00,VWS V14.01,2013-01-21 03:18:00,
2013-01-20 21:23:00,15.2,10.4,30.47,WNW,295,1.0,2.0,81,0.00,,FEW020,0.00,VWS V14.01,2013-01-21 03:23:00,
2013-01-20 21:28:00,15.3,10.5,30.47,NW,315,2.0,4.0,81,0.00,,FEW020,0.00,VWS V14.01,2013-01-21 03:28:00,
2013-01-20 21:33:00,15.3,10.2,30.47,WNW,303,2.0,2.0,80,0.00,,FEW020,0.00,VWS V14.01,2013-01-21 03:33:00,
2013-01-20 21:38:00,15.2,10.4,30.47,WNW,303,2.0,2.0,81,0.00,,FEW020,0.00,VWS V14.01,2013-01-21 03:38:00,
2013-01-20 21:43:00,15.1,10.1,30.48,WNW,303,1.0,2.0,80,0.00,,FEW020,0.00,VWS V14.01,2013-01-21 03:43:00,
2013-01-20 21:48:00,15.0,10.2,30.48,WNW,303,0.0,3.0,81,0.00,,FEW020,0.00,VWS V14.01,2013-01-21 03:48:00,
2013-01-20 21:53:00,15.0,10.0,30.48,WNW,303,0.0,2.0,80,0.00,,FEW020,0.00,VWS V14.01,2013-01-21 03:53:00,
2013-01-20 21:58:00,14.9,10.1,30.48,NW,312,1.0,2.0,81,0.00,,FEW020,0.00,VWS V14.01,2013-01-21 03:58:00,
2013-01-20 22:04:00,14.9,10.1,30.48,NW,318,3.0,3.0,81,0.00,,FEW020,0.00,VWS V14.01,2013-01-21 04:04:00,
2013-01-20 22:09:00,14.8,10.0,30.48,NW,318,2.0,3.0,81,0.00,,FEW020,0.00,VWS V14.01,2013-01-21 04:09:00,
2013-01-20 22:14:00,14.8,10.0,30.48,NE,34,0.0,1.0,81,0.00,,FEW020,0.00,VWS V14.01,2013-01-21 04:14:00,
2013-01-20 22:19:00,14.7,9.9,30.48,NNE,23,1.0,2.0,81,0.00,,FEW020,0.00,VWS V14.01,2013-01-21 04:19:00,
2013-01-20 22:24:00,14.5,9.7,30.48,North,11,2.0,4.0,81,0.00,,FEW020,0.00,VWS V14.01,2013-01-21 04:24:00,
2013-01-20 22:29:00,14.4,9.6,30.48,NNE,15,1.0,3.0,81,0.00,,FEW020,0.00,VWS V14.01,2013-01-21 04:29:00,
2013-01-20 22:34:00,14.1,9.6,30.48,NNE,15,1.0,2.0,82,0.00,,FEW020,0.00,VWS V14.01,2013-01-21 04:34:00,
2013-01-20 22:39:00,13.9,9.4,30.49,North,349,1.0,4.0,82,0.00,,FEW020,0.00,VWS V14.01,2013-01-21 04:39:00,
2013-01-20 22:44:00,13.7,9.0,30.49,NNW,330,2.0,2.0,81,0.00,,,0.00,VWS V14.01,2013-01-21 04:44:00,
2013-01-20 22:49:00,13.8,9.1,30.48,NW,323,2.0,2.0,81,0.00,,,0.00,VWS V14.01,2013-01-21 04:49:00,
2013-01-20 22:54:00,13.9,8.9,30.48,NW,318,2.0,3.0,80,0.00,,,0.00,VWS V14.01,2013-01-21 04:54:00,
2013-01-20 22:59:00,14.0,9.0,30.48,NW,318,1.0,2.0,80,0.00,,,0.00,VWS V14.01,2013-01-21 04:59:00,
2013-01-20 23:00:00,14.1,9.1,30.48,WNW,303,0.0,2.0,80,0.00,,,0.00,VWS V14.01,2013-01-21 05:00:00,
2013-01-20 23:03:00,14.1,9.1,30.48,NW,308,0.0,2.0,80,0.00,,,0.00,VWS V14.01,2013-01-21 05:03:00,
2013-01-20 23:04:00,14.1,9.1,30.48,NW,308,1.0,1.0,80,0.00,,,0.00,VWS V14.01,2013-01-21 05:04:00,
2013-01-20 23:09:00,14.1,9.1,30.47,WSW,251,2.0,3.0,80,0.00,,,0.00,VWS V14.01,2013-01-21 05:09:00,
2013-01-20 23:13:00,14.1,9.1,30.46,WSW,253,1.0,2.0,80,0.00,,,0.00,VWS V14.01,2013-01-21 05:13:00,
2013-01-20 23:19:00,14.0,9.3,30.46,WSW,253,1.0,2.0,81,0.00,,,0.00,VWS V14.01,2013-01-21 05:19:00,
2013-01-20 23:24:00,13.9,9.2,30.45,WSW,253,0.0,0.0,81,0.00,,,0.00,VWS V14.01,2013-01-21 05:24:00,
2013-01-20 23:29:00,13.7,9.0,30.45,WSW,253,0.0,1.0,81,0.00,,,0.00,VWS V14.01,2013-01-21 05:29:00,
2013-01-20 23:34:00,13.5,9.0,30.46,WSW,253,0.0,1.0,82,0.00,,,0.00,VWS V14.01,2013-01-21 05:34:00,
2013-01-20 23:39:00,13.3,8.8,30.46,WSW,253,0.0,0.0,82,0.00,,,0.00,VWS V14.01,2013-01-21 05:39:00,
2013-01-20 23:44:00,13.1,8.6,30.46,WSW,253,0.0,1.0,82,0.00,,BKN043,0.00,VWS V14.01,2013-01-21 05:44:00,
2013-01-20 23:49:00,13.1,8.9,30.47,WSW,253,1.0,1.0,83,0.00,,BKN043,0.00,VWS V14.01,2013-01-21 05:49:00,
2013-01-20 23:54:00,13.0,8.8,30.47,WSW,253,1.0,2.0,83,0.00,,BKN043,0.00,VWS V14.01,2013-01-21 05:54:00,
2013-01-20 23:59:00,13.1,8.9,30.47,WSW,253,0.0,2.0,83,0.00,,BKN043,0.00,VWS V14.01,2013-01-21 05:59:00,